Погода в Мытишине

Россия / Смоленская область     54°48′03″N   34°00′40″E
темп.,
°C
ветер,
м/с
пор.,
м/с
влажн.,
%
обл.,
%
осадки,
мм/ч
давл.,
гПа
погр.,
м
14 августа, вс
вс1400:00+17в237099 0.0 102149
03:00+16всв2374100 0.1 102060
06:00+16всв2484100 0.0 102090
09:00+21в356597 0.1 1020366
12:00+25юв2358100 0.2 1019743
15:00+28вюв1248100 0.2 10181441
18:00+27в125755 0.0 1018226
21:00+20юв228332 0.0 101818
15 августа, пн
пн1500:00+17юв229335 0.6 101933
03:00+16в22955 0.6 101927
06:00+15всв26945 0.0 1019119
09:00+20в36715 0.0 1019303
12:00+27в47415 0.0 10181501
15:00+28вюв56405 0.0 10171684
18:00+25в375495 0.0 10171068
21:00+20всв31074100 0.0 1018196
16 августа, вт
вт1600:00+19всв31177100 0.0 1017262
03:00+18в3117699 0.0 1017274
06:00+18в4127290 0.0 1017341
09:00+21вюв4106286 0.0 1017480
12:00+27юв694113 0.0 1017973
15:00+27вюв584150 0.0 10171094
18:00+26вюв594545 0.0 1017932
21:00+19в266678 0.0 1018114
17 августа, ср
ср1700:00+17в287454 0.0 1018148
03:00+15в277811 0.0 1017146
06:00+15всв37797 0.0 1017140
09:00+21в475764 0.0 1016348
12:00+27вюв454399 0.0 1016861
15:00+28вюв344174 0.0 10151300
18:00+25в485310 0.0 1016626
21:00+19св3107637 0.0 1016199
18 августа, чт
чт1800:00+19всв387440 0.0 1016181
03:00+17всв310745 0.0 1016208
06:00+16всв311686 0.0 1016222
09:00+22в412505 0.0 1016483
12:00+27в57365 0.0 10151177
15:00+29в46305 0.0 10151777
18:00+27в37425 0.0 1015370
21:00+20св310601 0.0 1015172